Wetbulb
44.45 41.19 37.27 39.24 39.73 40.96 40.90 39.74 39.64 42.10 47.39 52.13 52.66 51.67 56.25 57.10 58.68 59.38 60.11 61.44 62.80 63.54 64.71 66.12 66.08 65.94 65.14 63.70 64.13 67.02 68.06 67.88 66.79 64.76 63.12 61.81 59.69 59.38 58.05 57.49 58.82 58.72 58.83 58.15
43.31 39.01 43.78 43.70 43.21 42.36 41.28 39.53 39.89 42.69 48.35 49.70 49.76 51.90 56.18 56.21 59.16 60.83 60.73 60.96 61.75 61.68 63.30 63.21 63.23 63.38 63.65 61.58 61.07 63.11 63.93 64.98 65.70 65.55 64.13 61.97 60.21 58.57 57.02 55.72 56.54 57.45 57.70 57.37
41.03 43.99 47.30 45.67 43.63 43.00 39.80 39.74 39.98 42.65 46.34 47.15 51.31 48.59 53.07 56.91 59.11 60.48 61.44 61.84 62.26 62.64 62.28 61.84 60.72 60.77 61.20 60.10 59.46 60.66 61.80 62.83 62.95 63.21 62.58 59.89 58.20 56.57 54.98 54.69 55.04 56.29 57.48 57.74
42.99 46.24 46.32 44.40 43.89 43.30 38.47 44.18 44.41 45.17 43.14 39.13 46.46 40.71 43.90 53.99 56.79 58.65 59.64 59.89 60.88 62.16 61.92 61.08 60.27 59.93 59.74 59.48 58.74 58.22 59.47 59.06 60.23 61.19 60.47 57.91 55.10 53.55 53.58 53.60 54.18 55.55 56.77 57.13
43.95 44.56 44.63 44.07 45.11 45.67 43.34 45.01 44.67 44.81 40.23 38.63 39.37 37.52 39.47 47.93 50.66 55.95 57.68 59.94 60.86 61.77 61.17 59.87 59.82 59.43 59.12 58.51 57.49 56.99 57.01 57.05 57.44 56.39 56.46 54.42 52.32 53.13 54.06 53.17 53.69 54.08 54.89 56.89
44.93 47.73 47.42 46.98 48.46 47.20 47.62 44.53 42.19 39.34 37.62 34.45 36.91 37.22 37.34 39.63 48.16 55.78 57.62 59.82 61.25 61.14 60.21 59.33 59.65 58.71 58.04 56.84 56.35 55.77 55.84 55.30 55.35 54.58 53.71 53.44 52.63 53.01 53.08 52.37 53.03 53.37 53.59 54.65
43.74 44.76 47.34 48.72 44.70 45.40 43.32 39.47 33.46 32.94 32.23 33.63 38.16 37.09 39.85 44.81 48.33 48.38 54.11 58.64 61.38 61.20 59.17 58.35 57.95 57.30 56.34 56.29 55.20 55.26 55.22 54.24 54.89 54.47 53.86 53.13 52.88 53.48 53.16 52.98 53.31 52.58 52.53 53.02
38.37 38.69 45.07 48.88 45.45 43.36 40.28 39.75 34.41 29.95 29.92 33.36 38.49 35.36 41.37 50.05 51.20 54.54 52.04 57.82 60.74 59.93 58.47 58.58 57.56 57.50 57.26 57.16 56.08 55.47 54.53 53.78 54.36 54.14 53.77 53.38 53.46 52.68 52.75 52.65 52.76 53.09 53.40 53.69
38.14 40.02 47.46 49.03 48.64 47.04 41.98 38.46 40.19 35.37 33.60 33.44 35.81 41.11 47.57 49.99 53.31 56.63 57.05 58.46 58.52 58.71 57.86 57.41 57.95 57.61 57.27 56.49 56.04 55.06 54.53 54.26 53.98 54.45 55.06 53.65 53.34 54.04 53.88 54.00 53.40 53.47 54.00 56.98
43.18 38.73 45.79 48.86 47.70 46.98 44.38 45.03 38.57 35.54 31.07 29.67 34.15 36.47 39.32 45.61 48.62 54.17 55.09 55.63 56.34 56.49 56.31 56.33 56.85 57.27 57.41 56.39 55.96 55.41 55.53 55.09 54.82 55.53 54.90 55.59 54.45 54.43 54.51 54.02 54.33 54.96 54.82 54.02
42.71 40.46 42.40 46.11 43.50 42.66 43.08 39.75 37.79 37.50 35.87 31.91 30.66 35.61 44.02 47.28 48.52 52.13 54.26 56.05 56.09 56.64 56.66 55.79 56.13 57.17 57.39 56.37 55.90 55.88 55.66 55.29 55.17 55.52 54.46 54.57 54.49 55.25 54.93 55.34 55.06 52.98 52.24 51.80
44.02 40.04 38.19 42.36 46.32 47.68 45.51 42.30 39.58 35.31 33.70 33.91 33.56 34.42 45.35 48.39 49.02 50.07 53.53 56.34 57.07 57.64 57.43 56.59 55.69 56.45 55.72 55.88 55.78 55.92 55.68 55.31 55.25 55.09 55.05 54.54 54.81 55.94 55.50 53.78 52.26 51.63 51.27 52.48
44.75 38.38 34.52 37.76 42.03 44.57 42.71 43.83 41.41 38.74 36.25 34.56 33.27 35.38 47.09 48.14 48.82 50.51 49.57 51.27 56.20 56.86 56.33 55.52 54.55 55.02 55.24 55.66 55.97 56.01 56.02 55.97 56.15 55.91 55.24 54.51 55.16 54.37 53.77 53.26 52.77 53.41 52.10 52.83
49.69 39.32 38.02 35.90 38.77 41.19 40.38 44.01 43.06 40.83 35.84 36.60 36.34 39.24 44.92 46.50 47.90 49.05 50.34 50.81 53.72 56.15 55.43 54.89 54.49 54.60 54.75 55.28 55.95 56.16 55.13 55.85 56.03 56.49 55.64 54.57 54.32 53.40 52.82 52.49 53.70 53.22 51.32 50.26
44.04 39.24 40.56 41.94 43.66 44.92 44.50 43.85 43.29 41.67 41.10 39.14 40.88 40.26 44.69 46.52 47.06 47.98 48.95 51.92 51.47 53.91 54.42 54.93 54.95 53.92 52.84 53.44 54.79 55.09 55.22 56.39 56.63 56.01 55.20 54.08 53.88 54.17 54.00 52.05 51.21 50.65 50.22 48.01
43.77 39.72 40.02 40.14 45.24 45.06 43.28 44.67 44.91 43.79 43.20 41.60 42.48 41.06 46.17 47.92 46.84 47.39 49.02 49.74 51.30 52.08 54.20 54.52 53.94 53.21 53.25 54.52 55.02 55.72 55.24 55.46 55.86 54.87 53.79 54.30 54.47 53.34 51.56 50.65 48.40 46.72 44.89 45.02
42.26 40.57 38.07 35.11 42.80 43.11 38.72 43.10 44.76 44.70 44.45 44.14 40.10 43.15 46.15 46.38 47.99 47.96 48.23 50.91 52.11 53.12 53.32 54.36 54.54 54.02 54.34 55.03 55.60 54.88 55.34 56.04 55.30 54.58 54.46 53.55 52.07 50.39 48.70 46.55 44.77 44.53 43.55 43.30
42.35 39.31 37.93 34.92 38.33 32.19 41.70 46.68 47.72 45.83 46.66 46.35 45.80 46.22 46.44 45.57 45.78 48.74 49.36 51.71 53.02 54.45 55.08 55.12 54.85 54.71 55.18 55.48 55.58 55.56 55.50 55.34 54.86 54.39 51.76 50.40 48.43 46.46 45.14 44.28 43.72 43.04 42.19 42.16
45.71 41.31 37.47 34.63 34.46 39.09 43.26 46.43 45.11 43.37 43.82 47.12 46.26 47.48 47.92 48.10 50.03 49.85 53.64 54.13 54.31 55.37 55.91 55.82 55.69 55.42 55.52 55.38 55.44 54.95 54.04 52.21 51.01 49.63 48.19 47.17 46.85 45.43 44.24 42.98 42.69 42.26 41.69 40.64
44.77 44.60 41.20 36.35 32.38 31.90 40.54 48.53 51.26 48.72 42.19 49.44 48.37 47.65 46.84 47.18 43.22 45.94 52.62 54.04 54.35 55.94 56.32 55.70 56.01 55.90 55.64 54.93 55.03 53.30 50.03 48.58 47.52 47.45 47.25 47.43 46.22 44.57 43.50 43.54 43.89 42.77 40.40 39.37
39.05 39.57 38.43 34.23 33.80 37.65 45.76 50.44 51.38 39.96 41.52 48.37 48.55 46.43 45.67 45.74 46.99 48.59 52.68 52.31 53.88 54.94 55.24 55.74 55.70 54.44 52.90 52.75 52.18 48.90 47.31 46.70 47.60 47.80 47.12 46.01 44.55 44.17 44.04 43.94 42.65 38.86 38.33 37.52
38.03 35.95 34.74 35.73 30.80 32.01 48.07 47.91 43.62 44.84 47.26 49.18 49.44 49.10 49.25 48.67 50.27 51.34 52.01 51.01 51.71 51.34 53.13 54.29 52.35 50.16 51.16 51.33 49.56 47.61 46.31 47.05 47.27 46.79 45.90 44.72 43.69 45.36 44.06 41.90 37.90 37.71 37.10 36.02
37.38 41.60 39.02 39.85 38.05 44.69 47.83 48.28 50.45 50.76 49.18 50.52 50.90 50.91 51.27 50.86 51.61 52.71 51.47 50.68 50.77 50.39 51.42 51.80 50.61 49.63 49.51 50.07 48.93 46.38 46.19 46.90 46.00 44.49 43.45 43.34 42.98 42.51 42.17 40.11 38.06 37.06 36.17 35.33
41.61 44.81 40.03 43.03 42.77 46.58 48.35 49.54 50.88 51.91 50.90 52.63 53.20 52.29 51.97 50.71 52.42 50.56 50.25 50.05 50.45 50.64 50.56 51.33 50.40 48.75 46.93 48.21 48.58 47.45 46.67 46.28 44.79 43.46 42.16 42.05 41.45 41.01 41.98 41.30 39.49 37.30 36.13 35.05
42.72 43.31 42.65 42.18 45.38 49.54 50.44 50.51 51.01 51.41 53.16 54.00 54.02 53.40 52.30 51.43 50.72 51.14 49.99 50.01 50.31 50.60 50.89 51.21 50.46 49.14 47.20 46.82 46.54 46.74 46.40 45.72 43.70 42.96 42.05 40.96 41.19 40.55 40.62 40.90 40.33 38.94 37.56 37.38
42.85 42.13 41.18 40.86 46.95 45.38 44.75 47.75 52.65 51.59 50.45 52.19 53.05 53.03 53.25 52.13 51.62 51.44 50.50 50.82 50.89 50.68 51.02 50.95 50.51 48.39 46.34 46.70 46.77 46.49 46.77 45.76 43.20 42.69 41.82 40.69 40.77 40.98 41.56 40.66 40.53 40.56 39.89 39.27
MSLP
1008.82 1009.83 1010.14 1010.01 1010.13 1010.25 1010.36 1010.58 1010.68 1010.05 1010.50 1011.73 1011.55 1011.71 1011.05 1011.46 1011.90 1012.39 1013.20 1013.85 1014.56 1014.68 1014.99 1015.20 1015.45 1015.75 1016.11 1016.49 1016.76 1017.02 1017.21 1017.57 1017.74 1018.13 1018.81 1019.38 1019.80 1020.23 1020.36 1020.27 1020.16 1020.12 1020.18 1020.27
1009.46 1009.77 1009.43 1009.48 1009.58 1009.69 1009.75 1009.96 1009.95 1009.47 1009.49 1010.80 1011.47 1011.40 1011.38 1011.45 1011.00 1011.12 1012.22 1013.40 1014.04 1014.92 1015.49 1015.61 1015.69 1015.67 1015.86 1016.51 1016.90 1017.33 1017.49 1017.72 1017.88 1018.09 1018.74 1019.16 1019.91 1020.63 1020.71 1020.75 1020.68 1020.59 1020.60 1020.74
1009.50 1008.92 1008.77 1008.98 1008.88 1009.09 1009.18 1009.61 1009.61 1009.77 1010.22 1010.48 1011.13 1012.18 1011.68 1011.35 1011.26 1011.76 1012.42 1012.95 1013.52 1013.88 1014.74 1015.50 1015.92 1016.30 1016.44 1016.46 1016.57 1016.89 1017.32 1017.67 1017.86 1018.26 1018.90 1019.56 1020.10 1020.74 1021.16 1021.33 1021.35 1021.24 1021.13 1021.14
1008.96 1008.45 1008.36 1008.49 1008.63 1008.85 1009.26 1008.78 1009.25 1009.65 1010.33 1010.86 1011.17 1012.78 1011.93 1011.33 1011.15 1011.57 1012.08 1012.80 1013.39 1013.93 1014.64 1015.11 1016.00 1016.69 1016.88 1017.00 1016.94 1017.06 1017.30 1017.67 1018.06 1018.36 1018.90 1019.47 1020.34 1021.17 1021.69 1021.73 1021.76 1021.62 1021.52 1021.45
1008.28 1007.98 1007.71 1007.79 1007.57 1007.95 1008.42 1008.44 1009.31 1009.74 1010.77 1011.30 1011.89 1012.34 1011.34 1011.36 1011.68 1011.34 1011.36 1011.76 1012.34 1012.81 1013.54 1014.64 1015.68 1016.29 1016.91 1017.33 1017.65 1017.69 1017.65 1017.84 1018.18 1018.77 1019.00 1019.78 1020.69 1021.21 1021.56 1021.83 1021.90 1022.09 1021.97 1021.69
1007.82 1007.37 1007.19 1006.65 1006.41 1006.98 1007.70 1008.92 1010.13 1011.23 1011.90 1012.75 1012.12 1012.34 1011.84 1011.38 1010.40 1009.93 1010.28 1010.76 1011.48 1012.39 1013.38 1014.49 1015.52 1016.34 1017.22 1017.54 1017.51 1017.81 1018.10 1018.53 1018.44 1018.95 1019.56 1019.88 1020.65 1021.35 1021.85 1022.18 1022.39 1022.40 1022.23 1022.00
1007.83 1007.23 1006.56 1006.07 1006.45 1007.08 1007.91 1009.77 1011.51 1012.89 1013.57 1013.38 1012.40 1012.60 1011.28 1010.16 1009.76 1009.45 1009.34 1009.42 1009.92 1011.30 1012.84 1014.14 1015.26 1016.54 1016.92 1018.05 1018.58 1018.16 1018.47 1018.98 1018.98 1019.17 1019.75 1020.11 1020.51 1020.99 1021.57 1022.05 1022.29 1022.39 1022.32 1022.21
1008.39 1007.52 1006.45 1005.85 1006.22 1007.25 1008.41 1009.55 1011.42 1012.94 1014.17 1013.69 1012.98 1012.03 1010.35 1009.62 1008.89 1008.14 1008.30 1009.08 1010.62 1011.51 1012.53 1013.48 1014.69 1015.73 1016.62 1017.56 1018.52 1018.53 1018.66 1019.05 1019.13 1019.28 1019.74 1020.15 1020.48 1020.86 1021.34 1021.71 1022.02 1022.22 1022.33 1022.29
1008.23 1007.60 1006.42 1006.00 1006.10 1006.75 1008.40 1009.80 1010.79 1012.74 1014.19 1014.01 1012.90 1011.49 1010.29 1009.53 1009.16 1008.66 1009.05 1009.77 1010.88 1011.68 1012.45 1013.25 1014.38 1015.60 1016.92 1017.40 1017.89 1017.92 1018.26 1018.82 1019.09 1019.41 1019.83 1020.24 1020.51 1020.89 1021.36 1021.62 1021.89 1022.19 1022.34 1022.25
1007.72 1007.81 1006.60 1006.02 1006.09 1006.70 1007.37 1008.89 1011.05 1012.76 1014.38 1014.64 1013.45 1012.34 1011.10 1010.12 1009.98 1009.95 1010.10 1010.44 1011.11 1011.91 1012.63 1013.27 1014.06 1015.24 1015.98 1016.36 1016.77 1017.33 1017.39 1017.65 1018.23 1018.70 1019.09 1019.72 1020.40 1020.92 1021.33 1021.75 1022.03 1022.14 1022.29 1022.37
1008.14 1008.34 1007.28 1006.94 1006.91 1007.27 1008.24 1009.09 1010.96 1012.46 1013.66 1014.26 1013.80 1012.42 1010.04 1009.58 1009.47 1009.72 1009.99 1010.15 1010.50 1011.09 1011.63 1012.38 1013.32 1014.19 1014.90 1015.81 1016.37 1016.71 1017.16 1017.45 1017.79 1018.39 1019.08 1019.66 1020.25 1020.58 1021.14 1021.70 1022.16 1022.39 1022.60 1022.65
1007.99 1008.52 1008.75 1007.78 1007.13 1007.01 1007.47 1008.73 1010.30 1012.51 1013.98 1014.12 1013.38 1011.15 1009.24 1009.14 1009.15 1009.24 1009.35 1009.65 1010.04 1010.31 1010.74 1011.46 1012.40 1013.47 1014.48 1015.26 1015.87 1016.22 1016.98 1017.39 1018.04 1018.49 1019.19 1019.74 1020.18 1020.54 1020.61 1021.71 1022.08 1022.27 1022.50 1022.75
1008.11 1009.11 1009.31 1008.93 1008.51 1007.64 1007.77 1008.41 1009.83 1011.37 1012.47 1013.33 1013.09 1010.54 1009.03 1008.83 1008.78 1008.73 1008.94 1009.19 1009.48 1009.80 1010.79 1011.59 1012.34 1012.95 1013.69 1014.53 1015.23 1015.91 1016.74 1017.41 1017.95 1018.70 1019.32 1020.06 1020.85 1021.46 1021.55 1021.75 1022.14 1022.21 1022.52 1022.59
1008.20 1009.60 1009.75 1009.29 1008.64 1008.19 1008.10 1008.28 1009.16 1010.28 1011.90 1012.20 1011.67 1010.36 1009.33 1008.73 1008.64 1008.44 1008.46 1008.55 1008.85 1009.42 1010.15 1010.83 1011.78 1012.35 1013.13 1014.06 1015.01 1015.80 1016.63 1017.36 1018.10 1018.93 1019.67 1020.35 1020.79 1021.32 1021.65 1021.87 1022.27 1022.53 1022.47 1022.81
1008.83 1009.79 1009.83 1009.23 1008.63 1008.37 1008.23 1008.48 1009.20 1009.72 1010.10 1010.66 1010.24 1009.94 1008.98 1008.35 1008.02 1007.78 1007.76 1008.30 1008.77 1009.13 1009.85 1010.41 1011.07 1011.83 1012.76 1013.75 1014.81 1015.69 1016.40 1017.14 1018.07 1019.01 1019.72 1020.47 1021.17 1021.58 1021.86 1022.32 1022.38 1022.94 1022.69 1023.11
1009.58 1010.13 1010.17 1009.72 1008.94 1008.61 1008.47 1008.39 1008.49 1008.65 1009.07 1009.40 1009.25 1008.97 1007.95 1007.14 1007.25 1007.26 1007.27 1007.67 1008.27 1008.72 1008.97 1009.56 1010.43 1011.42 1012.37 1013.46 1014.58 1015.73 1016.56 1017.34 1018.06 1018.98 1019.87 1020.52 1021.18 1021.58 1022.10 1022.68 1022.69 1022.98 1023.07 1023.20
1010.09 1010.67 1011.30 1011.01 1010.06 1009.40 1008.62 1007.77 1007.50 1007.58 1007.60 1007.89 1008.06 1007.46 1007.41 1007.19 1006.96 1006.50 1006.65 1007.01 1007.08 1007.66 1008.36 1009.20 1009.95 1011.06 1012.23 1013.18 1014.14 1015.64 1016.62 1017.40 1018.28 1019.07 1019.86 1020.57 1021.20 1021.92 1022.44 1022.80 1023.04 1023.27 1023.42 1023.44
1010.41 1011.31 1011.77 1011.82 1011.11 1009.75 1007.89 1006.78 1006.47 1006.63 1006.83 1006.97 1007.05 1006.86 1006.65 1006.60 1006.69 1006.67 1006.55 1006.76 1007.22 1007.82 1008.55 1009.32 1010.23 1011.35 1012.46 1013.50 1014.65 1015.72 1016.67 1017.56 1018.37 1019.26 1020.02 1020.77 1021.44 1022.26 1022.70 1023.02 1023.32 1023.60 1023.85 1023.92
1009.82 1011.09 1012.06 1012.31 1011.50 1009.39 1007.99 1006.89 1006.49 1006.37 1006.39 1006.23 1006.31 1006.32 1006.21 1006.62 1007.10 1007.14 1006.85 1006.93 1007.13 1007.53 1008.41 1009.24 1010.04 1011.11 1012.45 1013.29 1014.31 1015.56 1016.79 1017.64 1018.52 1019.42 1020.13 1021.02 1021.75 1022.45 1022.92 1023.45 1023.80 1024.03 1024.21 1024.33
1009.98 1010.32 1011.47 1012.46 1011.55 1009.63 1007.48 1006.13 1005.54 1005.70 1005.01 1005.80 1005.88 1006.16 1006.43 1007.18 1007.72 1007.15 1006.92 1007.31 1007.84 1008.21 1008.60 1009.24 1010.27 1011.41 1012.60 1013.86 1014.72 1015.79 1016.88 1017.62 1018.55 1019.43 1020.29 1021.02 1021.51 1022.14 1022.81 1023.31 1023.70 1023.99 1024.30 1024.53
1010.52 1010.92 1011.31 1011.56 1010.83 1008.81 1007.04 1005.93 1005.75 1006.35 1005.76 1005.86 1006.01 1006.22 1006.59 1007.26 1007.18 1007.14 1007.11 1007.96 1008.48 1009.04 1009.28 1009.85 1010.81 1011.67 1012.64 1013.56 1014.61 1015.87 1016.84 1017.78 1018.55 1019.54 1020.42 1021.23 1021.81 1022.38 1022.79 1023.14 1023.51 1024.01 1024.30 1024.57
1010.15 1010.68 1011.13 1011.13 1010.50 1008.86 1007.33 1006.48 1006.86 1006.75 1006.40 1006.22 1006.33 1006.35 1006.56 1006.77 1007.01 1007.54 1008.13 1008.75 1009.31 1009.52 1009.96 1010.30 1011.03 1011.99 1012.87 1013.82 1014.86 1016.20 1017.25 1018.15 1018.87 1019.63 1020.35 1021.11 1021.78 1022.24 1022.77 1023.09 1023.59 1023.90 1024.30 1024.87
1009.72 1009.27 1009.84 1009.89 1008.86 1008.05 1007.59 1007.20 1006.92 1006.88 1006.90 1007.06 1006.88 1006.45 1006.65 1006.95 1007.55 1007.87 1008.52 1008.80 1010.15 1010.94 1011.48 1011.50 1011.72 1012.94 1013.95 1014.47 1015.02 1016.20 1017.37 1018.09 1019.10 1020.05 1020.70 1021.23 1021.79 1021.95 1022.43 1023.13 1023.78 1023.96 1024.38 1024.80
1009.29 1008.96 1009.12 1009.41 1008.39 1007.92 1007.73 1007.55 1007.30 1007.21 1007.22 1007.22 1007.04 1006.65 1006.78 1007.24 1007.70 1008.60 1009.40 1010.01 1010.78 1011.51 1012.20 1012.70 1013.90 1013.96 1014.55 1015.00 1015.61 1015.96 1017.27 1018.42 1019.30 1020.25 1020.89 1021.37 1021.90 1022.24 1022.42 1022.88 1023.41 1023.83 1024.28 1024.68
1009.73 1009.26 1009.05 1008.83 1008.46 1008.29 1008.11 1007.90 1007.68 1007.57 1007.49 1007.40 1007.15 1006.98 1006.94 1007.33 1008.11 1008.50 1009.27 1009.95 1010.49 1011.31 1012.31 1012.66 1013.75 1014.55 1014.92 1015.05 1015.86 1016.55 1017.13 1018.11 1019.32 1020.03 1020.61 1021.19 1021.58 1021.98 1022.34 1022.64 1023.12 1023.43 1023.59 1023.93
1009.84 1009.19 1009.06 1008.63 1008.19 1008.18 1008.08 1007.68 1007.68 1007.76 1007.61 1007.47 1007.44 1007.35 1007.47 1007.27 1007.99 1008.54 1009.15 1009.77 1010.38 1011.33 1012.40 1013.26 1014.71 1014.49 1015.01 1015.46 1016.07 1016.70 1017.24 1017.97 1019.10 1019.89 1020.51 1021.08 1021.52 1022.06 1022.44 1022.73 1022.89 1022.83 1023.08 1023.28
Wind_Speed
3 5 4 6 3 3 1 2 3 5 9 11 21 6 13 8 6 9 10 11 10 10 7 10 11 10 9 7 8 6 8 6 8 6 6 4 4 3 4 4 6 6 6 6
7 4 9 5 4 4 3 2 7 10 6 7 10 18 10 11 15 19 17 14 13 7 8 8 9 8 7 8 7 7 7 6 4 4 3 4 4 3 4 3 5 6 7 7
6 6 4 2 4 3 3 2 5 8 5 4 9 5 4 7 5 7 8 10 11 18 17 12 7 5 7 9 9 9 8 7 6 8 7 5 5 4 3 4 4 4 5 5
5 4 3 4 7 9 4 7 6 4 4 4 3 5 6 11 14 11 13 12 15 14 10 11 9 7 7 6 6 7 8 7 6 7 8 8 5 4 2 2 2 3 5 5
8 5 6 5 9 8 12 7 9 3 3 5 1 4 7 7 11 17 14 16 15 16 16 14 11 8 5 6 6 5 7 7 6 6 7 6 5 4 3 3 6 3 3 4
7 4 5 9 5 7 5 5 8 6 4 2 4 6 6 6 17 24 18 19 18 16 13 11 9 7 6 5 7 6 7 5 7 8 7 8 9 7 5 4 4 2 1 3
5 4 5 5 2 3 7 8 3 4 4 6 4 3 10 6 9 9 17 22 23 18 15 15 13 10 8 5 3 6 7 6 7 9 8 8 8 8 8 6 4 3 1 1
3 8 3 1 5 7 0 8 8 7 4 6 4 6 6 7 8 4 13 14 14 17 15 17 15 14 13 10 7 7 8 7 7 8 8 7 7 5 5 5 4 3 2 1
6 7 4 3 4 9 5 3 5 8 4 3 4 4 7 6 7 8 8 11 13 13 15 16 15 11 11 11 10 11 9 7 8 8 7 7 7 7 6 6 4 3 3 3
7 2 4 4 1 4 8 8 4 4 4 3 5 4 7 5 4 4 8 11 9 9 11 14 15 15 13 13 12 11 12 14 12 11 9 8 8 7 6 5 5 6 5 5
5 4 9 2 3 7 1 2 7 6 5 7 3 8 8 10 10 11 10 13 16 17 18 17 15 15 14 12 12 13 11 11 11 8 5 8 6 7 7 6 6 6 5 5
4 6 6 8 5 3 7 6 6 7 4 0 4 9 6 9 9 9 12 13 13 15 19 18 16 16 14 14 13 14 10 9 7 7 7 7 7 8 9 7 6 6 7 4
4 1 1 9 8 5 3 5 6 6 4 7 6 9 3 2 5 10 10 9 13 15 13 12 14 17 16 15 14 12 10 8 7 6 7 7 8 5 7 7 6 5 5 5
6 4 7 9 10 3 3 5 5 7 5 5 7 6 7 7 8 9 10 9 12 14 15 16 15 16 14 13 12 11 7 7 8 8 8 8 8 8 8 6 6 4 6 5
6 4 5 6 6 3 4 2 4 5 5 7 8 9 9 10 10 13 9 9 7 12 14 17 17 14 11 10 10 9 10 11 10 10 10 8 6 7 6 6 7 3 6 4
1 3 1 3 4 5 5 6 9 7 5 5 7 9 11 10 7 7 10 9 11 11 17 17 13 14 14 15 13 11 11 11 11 11 11 10 8 7 7 4 6 5 5 5
3 5 3 5 4 6 8 8 9 6 6 7 9 10 7 8 10 10 9 12 15 15 15 15 16 14 14 15 15 13 12 12 12 12 11 9 9 9 6 5 6 5 4 3
5 5 4 5 1 9 7 5 7 9 5 5 6 7 8 7 2 6 6 9 9 11 12 12 12 13 14 14 13 14 13 12 12 11 10 10 9 8 6 6 5 3 2 2
7 6 3 4 6 5 5 4 5 7 8 7 7 9 8 2 3 4 4 4 8 11 11 11 14 17 15 16 16 15 12 11 12 11 11 9 9 7 6 6 4 2 2 2
5 3 6 4 5 9 4 14 11 3 16 9 5 7 4 3 3 7 6 5 7 9 12 15 16 15 15 13 14 15 12 12 12 12 11 9 8 8 7 6 5 2 3 3
4 2 8 4 6 7 7 9 7 8 9 3 2 1 4 6 6 3 9 6 6 6 11 14 15 15 14 15 15 14 13 12 12 11 10 9 7 7 7 6 4 4 5 5
8 6 4 3 3 9 3 2 7 3 2 1 2 2 3 6 3 5 6 7 7 10 14 15 15 13 13 14 15 14 12 11 12 12 11 9 7 6 5 7 4 6 6 6
7 8 7 10 8 4 3 4 3 3 4 3 4 4 5 6 5 9 9 12 8 7 7 9 13 13 10 11 14 15 12 13 11 10 8 8 6 6 7 7 5 4 4 4
2 2 4 1 2 3 2 2 3 2 3 5 4 5 7 5 8 8 9 9 9 9 10 10 9 11 10 10 12 15 13 11 11 10 8 7 7 6 6 4 4 4 4 3
4 2 3 3 3 2 3 5 4 3 4 4 4 2 6 9 9 14 13 13 14 14 13 12 11 9 10 11 12 13 13 12 10 9 8 6 5 6 5 4 5 5 5 5
4 5 4 6 5 3 5 5 4 7 7 8 6 3 3 6 12 10 13 14 15 15 12 9 4 8 10 11 13 12 12 13 11 9 7 5 5 4 4 4 2 6 6 9
Wind_Direction
14 67 228 242 151 131 122 140 280 248 200 162 218 238 222 171 166 165 170 165 173 168 161 147 140 132 119 115 116 127 120 126 128 119 117 99 91 79 60 62 70 68 65 59
19 260 232 225 185 178 151 13 295 286 143 148 175 228 230 186 199 187 176 178 175 153 164 162 158 156 142 129 115 113 115 134 129 98 105 119 128 97 89 64 62 64 64 61
159 232 80 183 298 344 329 223 255 218 146 67 116 339 198 232 192 188 206 199 178 173 170 172 156 141 143 146 147 142 138 128 116 120 113 87 72 64 55 34 47 38 75 75
227 262 210 212 233 145 243 208 212 243 117 184 142 234 246 216 215 204 200 192 189 179 167 161 160 163 160 156 128 120 122 119 121 131 129 134 127 128 162 136 107 68 53 71
245 295 339 305 233 138 227 169 188 158 119 107 282 99 255 138 229 223 208 203 196 181 171 166 162 158 157 135 129 112 110 108 124 121 130 128 110 115 125 98 93 62 18 34
235 239 200 223 251 177 131 97 51 49 83 54 236 131 283 186 213 228 208 204 196 182 165 154 151 143 121 139 138 128 117 110 120 120 130 129 126 131 124 118 115 111 18 5
333 264 277 203 104 38 80 66 353 347 11 204 160 76 234 265 233 209 222 208 195 173 157 159 158 145 159 145 178 138 129 122 124 121 122 129 129 138 142 154 159 157 135 11
162 323 210 229 148 192 185 145 153 197 204 243 205 228 253 254 299 301 219 208 166 170 171 166 159 166 160 173 179 152 141 138 133 124 129 132 136 128 146 165 157 154 158 111
156 272 288 201 201 145 181 157 180 102 15 72 260 289 332 329 346 64 94 141 174 173 171 162 165 166 168 178 181 166 151 148 145 139 138 145 138 145 156 160 141 134 83 64
219 280 208 270 100 65 159 155 80 14 138 230 291 273 240 253 221 157 154 170 167 154 161 173 176 173 184 180 175 173 169 166 163 161 162 160 157 153 145 133 112 96 96 82
142 119 278 49 181 184 317 94 52 112 126 162 212 263 219 216 199 193 198 184 175 179 183 182 181 179 183 179 180 181 180 167 169 159 131 140 156 133 123 115 111 103 92 82
214 161 224 204 301 239 167 163 131 117 240 176 172 261 214 230 212 202 204 199 199 194 186 186 179 178 182 185 185 185 176 166 160 142 152 158 139 138 124 113 112 112 110 121
179 287 300 332 353 343 207 173 118 116 94 189 163 261 343 251 246 232 213 202 197 197 185 181 178 188 187 187 187 178 170 169 152 139 120 105 110 112 113 120 118 126 93 72
83 143 167 204 214 178 199 184 143 127 126 191 218 270 286 262 246 251 240 219 201 191 184 184 189 194 187 183 177 166 149 134 119 115 116 126 128 138 129 120 102 102 104 79
116 216 181 238 242 197 203 241 153 180 199 164 233 204 244 248 243 236 234 266 160 178 181 192 193 187 170 152 145 131 125 128 132 130 127 132 125 124 108 94 101 102 86 81
38 249 210 279 279 243 236 205 229 212 187 230 228 245 230 251 240 254 233 186 179 194 191 192 181 169 161 154 145 134 128 129 133 134 135 135 130 125 117 140 110 101 90 71
133 134 101 260 284 322 313 204 211 214 191 183 224 238 248 261 246 235 224 197 190 192 184 176 174 161 153 148 137 135 132 131 138 139 143 138 133 127 123 112 102 90 79 77
139 127 137 222 77 256 235 210 200 224 239 214 277 256 238 239 290 312 241 192 171 167 168 165 150 136 134 126 126 131 136 141 141 138 135 131 123 123 120 107 97 88 66 81
172 137 193 188 203 288 306 287 197 172 258 196 224 258 265 162 83 296 259 212 195 169 158 150 144 135 138 142 139 137 139 133 132 137 134 131 131 123 113 110 126 118 101 57
134 89 170 138 198 231 216 219 219 308 270 231 204 268 281 137 149 249 190 152 143 150 149 147 144 138 136 140 140 137 136 135 136 136 136 138 135 135 143 151 143 100 71 41
145 170 211 167 244 283 242 210 159 211 258 144 170 287 138 190 209 283 140 144 142 139 142 135 137 136 137 138 137 132 135 139 138 133 131 134 137 141 149 138 114 111 94 70
185 169 197 141 218 291 335 341 198 250 283 130 182 232 244 236 297 157 132 108 122 134 141 141 133 130 137 137 132 137 134 136 136 140 144 144 144 148 143 124 116 109 109 93
232 204 204 184 208 230 276 213 256 197 190 235 250 212 216 166 195 161 157 137 128 119 122 120 124 127 134 140 142 137 147 143 138 135 139 148 151 141 137 130 136 118 124 121
266 132 197 118 264 224 293 331 283 294 222 206 243 210 179 173 143 125 122 114 112 116 126 122 119 135 139 144 153 141 142 142 138 144 147 148 146 142 138 137 148 145 160 170
216 42 177 267 271 87 264 238 227 263 257 263 280 267 188 140 149 143 142 144 142 137 137 140 154 163 159 145 140 148 144 142 150 153 151 153 154 155 151 162 173 188 205 177
197 196 194 231 226 168 237 254 214 231 225 231 216 246 212 169 157 152 157 155 153 148 148 134 144 172 158 150 150 152 153 153 151 152 152 162 147 164 155 166 219 236 228 215